PST,Max TemperatureF,Mean TemperatureF,Min TemperatureF,Max Dew PointF,MeanDew PointF,Min DewpointF,Max Humidity, Mean Humidity, Min Humidity, Max Sea Level PressureIn, Mean Sea Level PressureIn, Min Sea Level PressureIn, Max VisibilityMiles, Mean VisibilityMiles, Min VisibilityMiles, Max Wind SpeedMPH, Mean Wind SpeedMPH, Max Gust SpeedMPH,PrecipitationIn, CloudCover, Events, WindDirDegrees
2014-2-1,53,42,30,29,19,7,75,46,16,30.11,30.06,29.99,10,10,10,22,7,25,0.00,0,,57
2014-2-2,57,41,24,36,22,11,76,47,18,30.10,30.01,29.91,10,10,10,28,8,33,T,2,Rain,241
2014-2-3,53,41,28,31,28,25,92,65,38,29.99,29.94,29.89,10,10,10,31,12,36,0.00,0,,276
2014-2-4,56,45,34,31,27,20,70,48,26,30.06,30.01,29.96,10,10,10,20,10,23,0.00,2,,286
2014-2-5,57,46,34,30,22,10,82,51,20,30.14,30.05,29.99,10,10,9,20,8,24,0.00,2,,284
2014-2-6,54,48,41,41,35,9,82,51,19,30.01,29.95,29.88,10,10,10,36,17,41,T,4,Rain,240
2014-2-7,62,51,40,40,36,30,85,59,32,30.12,30.07,30.00,10,10,10,28,14,31,0.00,0,,242
2014-2-8,68,56,43,42,39,37,76,55,34,30.21,30.16,30.12,10,10,10,26,13,33,0.00,0,,239
2014-2-9,73,57,41,44,37,26,76,48,20,30.14,30.09,30.00,10,10,10,31,11,36,0.00,0,,255
2014-2-10,66,58,49,45,40,33,71,53,34,30.15,30.09,30.04,10,10,10,31,19,39,0.00,0,,281
2014-2-11,68,53,38,41,34,24,85,57,28,30.18,30.14,30.09,10,10,9,12,3,12,0.00,0,,214
2014-2-12,81,60,39,27,14,-9,49,27,5,30.21,30.14,30.06,10,10,10,23,8,25,0.00,0,,258
2014-2-13,84,66,47,24,14,7,37,22,6,30.12,30.07,30.01,10,10,10,29,11,32,0.00,0,,261
2014-2-14,84,63,42,22,10,4,28,17,5,30.10,30.05,30.01,10,10,10,28,10,32,0.00,0,,234
2014-2-15,83,64,45,32,19,13,29,19,8,30.06,30.00,29.96,10,10,10,24,8,29,0.00,0,,242
2014-2-16,76,61,46,30,24,19,42,28,14,30.07,30.00,29.94,10,10,10,28,12,33,0.00,0,,282
2014-2-17,77,58,38,36,30,18,64,37,10,30.08,30.02,29.93,10,10,10,22,8,28,0.00,0,,252
2014-2-18,72,55,37,35,27,19,70,43,15,30.09,30.02,29.97,10,10,10,15,5,18,0.00,0,,124
2014-2-19,68,55,41,39,27,18,59,37,15,30.03,29.96,29.88,10,10,9,37,16,41,0.00,0,,281
2014-2-20,68,53,37,40,27,16,76,45,14,30.19,30.10,30.05,10,10,10,24,8,28,0.00,0,,315
2014-2-21,70,53,36,23,18,15,52,32,12,30.10,30.01,29.92,10,10,10,10,4,12,0.00,0,,214
2014-2-22,72,55,38,27,23,19,48,32,15,29.98,29.92,29.88,10,10,10,9,4,12,0.00,0,,346
2014-2-23,73,55,36,30,27,24,64,40,16,30.01,29.95,29.91,10,10,9,10,5,,0.00,0,,204
2014-2-24,74,56,38,30,27,24,55,36,16,30.04,29.97,29.91,10,10,10,14,5,17,0.00,0,,240
2014-2-25,74,58,42,38,31,27,57,38,19,30.04,29.95,29.89,10,10,10,25,8,30,0.00,0,,231
2014-2-26,62,54,46,49,43,35,80,64,47,30.04,29.97,29.90,10,10,9,35,14,40,0.01,3,Rain,246
2014-2-27,65,58,51,49,42,31,83,57,30,29.98,29.88,29.79,10,10,4,28,16,34,0.13,3,Rain,245
2014-2-28,58,52,45,48,44,39,100,70,39,29.79,29.65,29.55,10,6,1,39,15,49,1.23,8,Rain,241